sat.trackr.live / text

‹ back to catalog

NORSAT 1

NORAD 42826 · 2017-042B

PAYLOAD ACTIVE UNKNOWN

§ Identity

Operator
Country
NOR
Launch date
2017-07-14
Launch site
TYMSC
Launch vehicle
Mass (kg)
RCS (m²)

External: N2YO · Heavens-Above · Gunter

§ Orbital elements

Epoch: 2026-09-19T17:57:31.185504Z

Period
95.05 min
Inclination
97.4542°
Eccentricity
0.0008140
Mean motion
15.15053111 rev/d
Perigee alt
515.2 km
Apogee alt
526.4 km
Semi-major
6,899.0 km
B*
2.5186e-4
RAAN
68.4801°
Arg perigee
111.5348°
Mean anomaly
248.6752°
Rev number
50,154

§ Raw data

NORSAT 11 42826U 17042B   26262.74827761  .00004647  00000+0  25186-3 0  99912 42826  97.4542  68.4801 0008140 111.5348 248.6752 15.15053111501540

JSON: /api/v1/satellites/42826 · /tle

For live sub-satellite position, see the globe view (requires WebGL).

§ Visibility from observer

Set your observer location to see the next 7 days of passes ≥ 10°. The values pass through the URL so the page stays shareable.

No JS? Fill the form by hand. The geolocation button needs JavaScript.